Showing default

ESSA 1 (OT-3), 1982

Orbit data source: Space-Track

ESSA 1 (OT-3), 1982 is a payload satellite owned by ESSA (US) in SSO that was launched on Thu, 03 Feb 1966 UTC via a THOR DELTA C launch vehicle from the Air Force Eastern Test Range (AFETR). Payload-class satellites include a variety of spacecraft equipped with specific instruments for various scientific and technological missions. These include communications satellites like Starlink; space stations such as the ISS; scientific satellites like the Hubble; Earth observation satellites from companies like Planet Labs, Umbra, and HawkEye 360; GPS; miniature CubeSats for education and research; and military/defense satellites.

Loading next visibility...
Identifier
1982, 1966-008A
Orbit
SSO
Country
Flag of USUS
Related business
Manufacturer
RCA/East Windsor
Mission
Non-operational Civil Weather
Bus & Motor
TIROS I, Unknown motor
Mass
138 kg wet, 138 kg dry
Launch date (UTC)
1966-02-03 (60 years ago)
Launch vehicle
THOR DELTA C
Launch site
Air Force Eastern Test Range (AFETR)
Object type
Payload
Rocket body
Debris
Shape & HBR
Cyl, 0.5 m
Radar Cross Section
0.920 m², Medium (>0.1 m² and < 1m²)

Expand to show TLE details & history
Last TLE update: 19 hours ago

TLE from 19 hours ago
0 ESSA 1 (OT-3)
1 01982U 66008A   25260.64292167  .00000136  00000-0  46148-4 0  9999
2 01982  97.8521 307.3741 0078991 225.7388 133.7307 14.48174494118491
Epoch: 2025-09-17T15:25Z
TLE epoch observation values (Epoch: 2025-09-17T15:25:48.432Z)
Latitude
0.00002°
Longitude
79.10637°
Altitude
773.656 km
Speed
7.447 km/s
True Right ascension
20h 29m 29s
True Declination
0° 00' 00"
Sunlit
Object was in full shadow at epoch
Visualization orbit readout
Latitude
Unknown
Longitude
Unknown
Altitude
Unknown
Speed
Unknown
Apparent Right ascension
Unknown
Apparent Declination
Unknown
Sunlit
N/A
Visualization observer readout
Local Sidereal Time
03:27:25
Azimuth
Unknown
Elevation
Unknown
Doppler factor
Unknown
Orbital elements
Apogee altitude
784.836 km
Perigee altitude
672.561 km
Semi-major axis
7,106.835 km
Eccentricity
0.0079
Inclination
97.8521°
RAAN
307.3741°
Arg. of periapsis
225.7388°
True anomaly
134.38032°
Mean anomaly
133.7307°
Eccentric anomaly
134.05596°
Mean motion
3.62267 °/min
Orbital period
99.37 mins
BSTAR
0.000046148
Loading maneuver chart data...
Computing Atmospheric mass density...
Loading historical data...
Loading historical data...
Loading historical data...
Loading historical data...
Loading historical data...
Loading historical data...
Loading historical data...
Other satellites on launch #8 in the year 1966 (1966-02-03 UTC)

Documentation

Showing up to 5 results
|